Location: Diebersbach
(48.5163°N, 8.0558°E)
Time: 08:47:28
(UTC+00:00)

ADEOS Rocket - Visible Passes

Search period start: 23 October 2021 00:00
Search period end: 02 November 2021 00:00
Orbit: 859 x 1306 km, 98.8° (Epoch: 22 October)

Date Brightness Start Highest point End Pass type
(mag) Time Alt. Az. Time Alt. Az. Time Alt. Az.
23 Oct 5.6 00:49:46 15° NNW 00:49:46 15° NNW 00:50:42 10° NNW visible
23 Oct 5.9 22:13:17 11° NNE 22:13:17 11° NNE 22:13:39 10° NNE visible
24 Oct 5.7 00:00:14 16° N 00:00:14 16° N 00:01:24 10° N visible
24 Oct 5.8 23:10:43 14° N 23:10:43 14° N 23:11:44 10° N visible
25 Oct 5.7 00:57:41 12° NNW 00:57:41 12° NNW 00:58:05 10° NNW visible
25 Oct 5.9 22:21:12 10° NNE 22:21:12 10° NNE 22:21:21 10° NNE visible
26 Oct 5.8 00:08:09 13° N 00:08:09 13° N 00:08:50 10° N visible
26 Oct 5.9 23:18:37 12° N 23:18:37 12° N 23:19:12 10° N visible
28 Oct 5.9 00:16:03 11° N 00:16:03 11° N 00:16:15 10° N visible
28 Oct 5.9 23:26:31 11° N 23:26:31 11° N 23:26:41 10° N visible
